Meteo Giornale » Osservazioni meteo Italia » Messina

ore: 23:55 - Osservazioni Meteo Messina
Lat. 38° 12' N Lon. 15° 33' E Alt. 59 metri s.l.m.

sereno Europe/Rome

20 °C

Sereno

Temp. 24 Ore

20 °C

24 °C

Nord-Ovest

13 Km/h

Dew point 11 °C

Umidità 56 %

Visibilità  10 Km

Il sole sorge alle ore 06:43

Il sole tramonta alle ore 18:57

Data e Ora Cielo e Fenomeni T °C DP °C Um. % Pres. hPa Vis. km Vento km/h
Ieri h: 23:55 sereno Sereno 20 11 56 1019 10 NO 13
Ieri h: 22:55 poco_nuvoloso Poco Nuvoloso 20 12 59 1019 10 NO 13
Ieri h: 21:55 poco_nuvoloso Poco Nuvoloso 20 13 64 1019 10 NO 11.1
Ieri h: 20:55 poco_nuvoloso Poco Nuvoloso 20 12 59 1019 10 NO 11.1
Ieri h: 19:55 poco_nuvoloso Poco Nuvoloso 22 12 53 1018 10 N/NE 11.1
Ieri h: 18:55 nuvoloso Nuvoloso 22 12 53 1018 10 N/NE 13
Ieri h: 17:55 nuvoloso Nuvoloso 23 11 46 1018 10 N 13
Ieri h: 16:55 nuvoloso Nuvoloso 23 11 46 1018 10 N 11.1
Ieri h: 15:55 nuvoloso Nuvoloso 24 11 43 1018 10 NO 13
Ieri h: 14:55 nuvoloso Nuvoloso 24 11 43 1018 10 N/NO 16.7
Ieri h: 13:55 nuvoloso Nuvoloso 23 10 43 1018 10 N 16.7
Ieri h: 12:55 nuvoloso Nuvoloso 23 9 40 1018 10 N/NE 14.8
Ieri h: 11:55 nuvoloso Nuvoloso 23 9 40 1018 10 N 14.8
Ieri h: 10:55 nuvoloso Nuvoloso 23 10 43 1018 10 N 14.8
Ieri h: 09:55 nuvoloso Nuvoloso 22 11 49 1017 10 N/NO 13
Ieri h: 08:55 nuvoloso Nuvoloso 21 11 52 1017 10 N 13
Ieri h: 07:55 nuvoloso Nuvoloso 21 13 60 1017 10 N/NE 14.8
Ieri h: 06:55 nuvoloso Nuvoloso 20 13 64 1016 10 N/NE 11.1
Ieri h: 05:55 coperto_pioggia Pioggia Debole 21 11 52 1016 10 NO 16.7
Ieri h: 04:55 poco_nuvoloso Poco Nuvoloso 21 12 56 1016 10 N/NO 11.1
Ieri h: 03:55 poco_nuvoloso Poco Nuvoloso 21 11 52 1017 10 N/NO 13
Ieri h: 02:55 poco_nuvoloso Poco Nuvoloso 21 12 56 1016 10 N 13
Ieri h: 01:55 nuvoloso Nuvoloso 21 12 56 1016 10 N 14.8